FW0518 Weather Reports


time (UTC)temp
F
wind
direction
speed
knots
gust
knots
rain 1hr
in
rain 24hr
in
rain mn
in
humidity
%
barometer
mb
20260507163009 61 259 8.7 14.8 0.00 0.00 0.00 63 1016.2
20260507161508 60 200 7.8 19.1 0.00 0.00 0.00 63 1016.2
20260507160007 60 270 9.6 17.4 0.00 0.00 0.00 63 1016.3
20260507154504 58 243 10.4 17.4 0.00 0.00 0.00 64 1016.6
20260507153002 58 213 8.7 16.5 0.00 0.00 0.00 67 1016.6
20260507151606 58 250 7.8 13.9 0.00 0.00 0.00 66 1016.9
20260507150058 57 237 7.0 15.6 0.00 0.00 0.00 68 1017.0
20260507144600 56 238 7.0 13.0 0.00 0.00 0.00 69 1017.2
20260507143100 55 203 5.2 12.2 0.00 0.00 0.00 71 1017.3
20260507141554 55 201 6.1 12.2 0.00 0.00 0.00 72 1017.2
20260507140049 54 229 7.0 10.4 0.00 0.00 0.00 72 1017.4
20260507134548 53 222 5.2 10.4 0.00 0.00 0.00 74 1017.4
20260507133048 52 250 4.3 10.4 0.00 0.00 0.00 76 1017.5
20260507131541 51 207 4.3 10.4 0.00 0.00 0.00 77 1017.5
20260507130042 49 247 6.1 10.4 0.00 0.00 0.00 79 1017.5
20260507124545 48 226 3.5 7.8 0.00 0.00 0.00 81 1017.4
20260507123036 47 216 5.2 8.7 0.00 0.00 0.00 82 1017.5
20260507121536 46 238 2.6 7.0 0.00 0.00 0.00 84 1017.5
20260507120034 45 211 3.5 7.0 0.00 0.00 0.00 84 1017.5
20260507114554 45 200 3.5 7.0 0.00 0.00 0.00 84 1017.5
20260507113057 45 229 2.6 6.1 0.00 0.00 0.00 83 1017.5
20260507111537 45 240 3.5 6.1 0.00 0.00 0.00 83 1017.5
20260507110027 45 212 3.5 7.0 0.00 0.00 0.00 82 1017.4
20260507104537 46 212 4.3 7.8 0.00 0.00 0.00 81 1017.3
20260507103123 46 217 3.5 7.0 0.00 0.00 0.00 81 1017.4
20260507101524 46 216 3.5 7.0 0.00 0.00 0.00 80 1017.5
20260507100021 46 236 3.5 7.8 0.00 0.00 0.00 80 1017.6
20260507094520 46 229 2.6 7.8 0.00 0.00 0.00 79 1017.6
20260507093017 46 226 4.3 8.7 0.00 0.00 0.00 79 1017.6
20260507091515 46 196 4.3 7.0 0.00 0.00 0.00 78 1017.7
20260507090013 47 231 3.5 7.8 0.00 0.00 0.00 78 1017.8
20260507084509 47 209 3.5 8.7 0.00 0.00 0.00 77 1018.0
20260507083008 47 221 3.5 7.8 0.00 0.00 0.00 77 1018.1
20260507081508 47 215 3.5 6.1 0.00 0.00 0.00 78 1018.1
20260507080006 47 225 3.5 7.8 0.00 0.00 0.00 77 1018.1
20260507074504 47 248 3.5 6.1 0.00 0.00 0.00 77 1018.1
20260507073001 47 210 3.5 5.2 0.00 0.00 0.00 75 1018.0
20260507071558 47 206 3.5 6.1 0.00 0.00 0.00 74 1018.3
20260507064555 48 211 3.5 5.2 0.00 0.00 0.00 72 1018.5
20260507063049 49 231 3.5 7.0 0.00 0.00 0.00 70 1018.7
20260507061548 49 204 3.5 7.0 0.00 0.00 0.00 69 1018.8
20260507060058 49 212 2.6 6.1 0.00 0.00 0.00 68 1018.8
20260507054544 50 198 2.6 5.2 0.00 0.00 0.00 67 1018.9
20260507053042 49 193 3.5 5.2 0.00 0.00 0.00 67 1018.8
20260507051539 51 188 3.5 6.1 0.00 0.00 0.00 62 1018.8
20260507050041 51 194 2.6 6.1 0.00 0.00 0.00 61 1018.9
20260507044536 51 202 4.3 7.0 0.00 0.00 0.00 57 1018.9
20260507043045 51 188 1.7 5.2 0.00 0.00 0.00 58 1019.0
20260507041535 51 207 1.7 5.2 0.00 0.00 0.00 57 1019.1
20260507040033 51 204 2.6 5.2 0.00 0.00 0.00 55 1018.9
20260507034536 52 190 2.6 4.3 0.00 0.00 0.00 54 1018.9
20260507033034 53 198 1.7 5.2 0.00 0.00 0.00 51 1019.1
20260507031532 53 198 2.6 4.3 0.00 0.00 0.00 50 1019.1
20260507030033 53 200 1.7 4.3 0.00 0.00 0.00 51 1019.0
20260507024531 53 187 1.7 4.3 0.00 0.00 0.00 51 1018.8
20260507023030 53 195 2.6 3.5 0.00 0.00 0.00 48 1018.7
20260507021529 54 198 1.7 3.5 0.00 0.00 0.00 48 1018.6
20260507020044 54 199 1.7 3.5 0.00 0.00 0.00 48 1018.3
20260507014531 54 243 1.7 2.6 0.00 0.00 0.00 50 1018.2
20260507013028 54 300 0.0 0.0 0.00 0.00 0.00 48 1018.2
20260507011539 55 300 0.0 0.0 0.00 0.00 0.00 48 1018.2
20260507010033 57 300 0.0 0.0 0.00 0.00 0.00 55 1018.2
20260507004526 59 300 0.0 0.0 0.00 0.00 0.00 50 1018.1
20260507003025 59 300 0.0 3.5 0.00 0.00 0.00 47 1018.0
20260507001555 59 333 0.9 2.6 0.00 0.00 0.00 43 1018.0
20260507000025 59 281 0.0 3.5 0.00 0.00 0.00 42 1018.2
20260506234523 59 325 0.9 4.3 0.00 0.00 0.00 43 1018.2
20260506233022 59 307 1.7 7.0 0.00 0.00 0.00 44 1018.2
20260506231521 59 305 2.6 6.1 0.00 0.00 0.00 41 1018.3
20260506230020 59 276 3.5 8.7 0.00 0.00 0.00 40 1018.3
20260506224519 59 345 4.3 8.7 0.00 0.00 0.00 39 1018.3
20260506223024 59 318 3.5 7.8 0.00 0.00 0.00 41 1018.1
20260506221515 59 333 3.5 9.6 0.00 0.00 0.00 41 1018.2
20260506220013 59 24 0.9 7.0 0.00 0.00 0.00 40 1018.3
20260506214511 58 12 2.6 7.8 0.00 0.00 0.00 41 1018.5
20260506213010 59 26 0.9 8.7 0.00 0.00 0.00 44 1018.7
20260506211509 59 292 2.6 9.6 0.00 0.00 0.00 42 1018.9
20260506210009 59 1 3.5 7.0 0.00 0.00 0.00 42 1019.2
20260506204505 58 327 3.5 10.4 0.00 0.00 0.00 44 1019.3
20260506203003 58 314 4.3 10.4 0.00 0.00 0.00 40 1019.4
20260506201503 58 360 2.6 7.8 0.00 0.00 0.00 43 1019.7
20260506200003 58 321 3.5 7.0 0.00 0.00 0.00 44 1019.9
20260506194505 58 344 2.6 7.0 0.00 0.00 0.00 46 1019.8
20260506193107 58 325 3.5 9.6 0.00 0.00 0.00 45 1019.8
20260506191559 57 360 0.9 7.8 0.00 0.00 0.00 46 1019.8
20260506190057 57 347 4.3 8.7 0.00 0.00 0.00 44 1019.9
20260506184556 56 20 4.3 8.7 0.00 0.00 0.00 47 1020.1
20260506183103 57 328 4.3 11.3 0.00 0.00 0.00 45 1020.2
20260506181557 57 274 1.7 8.7 0.00 0.00 0.00 47 1020.2
20260506180053 56 56 2.6 7.8 0.00 0.00 0.00 47 1020.5
20260506174549 56 28 3.5 9.6 0.00 0.04 0.00 46 1020.6
20260506173054 55 338 4.3 9.6 0.00 0.04 0.00 44 1020.7
20260506171545 55 353 2.6 7.0 0.00 0.04 0.00 51 1020.8
20260506170047 53 316 3.5 7.0 0.00 0.04 0.00 51 1020.9
20260506164555 53 307 2.6 7.8 0.00 0.05 0.00 51 1021.0